Wind_Speed
20 20 20 19 19 19 19 17 16 15 16 18 18 18 18 19 22 16 7 7 5 10 10 12 11 12 13 6 8 6 5 12 19 18 17 13 14 15 8 8 9 3 5 4 17
21 21 21 20 20 19 18 17 16 16 17 18 17 18 18 19 19 12 5 3 7 8 5 6 7 10 4 4 6 7 7 17 14 15 17 16 13 15 11 8 8 7 4 9 20
22 22 22 21 21 20 18 18 17 18 18 19 20 20 20 17 5 1 6 1 6 6 7 8 15 10 6 8 11 8 17 14 16 17 20 22 21 17 17 10 10 7 7 6 9
22 22 23 22 21 19 18 18 18 19 20 21 21 21 21 3 4 7 2 1 2 5 5 8 7 6 4 8 7 16 17 18 20 20 23 25 21 22 17 15 12 9 7 6 10
23 24 24 23 22 19 18 18 18 20 23 22 20 17 8 3 6 5 2 4 9 8 11 7 7 6 10 6 14 18 17 17 19 18 20 23 26 22 22 17 19 12 9 9 13
24 26 27 24 22 20 19 18 19 22 23 19 14 12 3 4 2 3 4 9 15 6 8 10 4 9 5 7 8 8 14 16 16 18 19 21 24 19 23 17 20 18 10 7 9
26 28 28 26 23 21 19 19 20 21 19 15 9 5 5 11 3 5 8 6 8 4 3 9 13 8 9 9 8 13 11 15 16 14 13 8 19 28 21 14 16 20 20 15 8
28 28 29 28 25 21 19 19 19 19 16 10 8 2 6 3 4 6 9 14 4 6 8 14 8 4 5 7 8 7 8 7 1 10 15 8 26 22 11 18 21 15 18 21 13
29 31 32 30 26 21 19 20 21 19 14 9 4 5 7 10 3 7 9 7 7 9 11 11 5 6 6 6 5 6 8 12 16 13 12 11 25 24 16 14 16 20 18 18 21
31 33 33 31 24 18 20 21 13 12 5 4 10 6 9 7 6 8 14 4 6 7 8 7 5 6 4 4 5 8 8 9 12 5 7 13 20 17 16 21 21 18 15 16 18
34 34 34 29 21 14 19 7 3 1 4 8 8 9 14 7 7 6 4 3 8 7 5 6 5 6 11 9 10 11 12 12 14 11 13 12 18 20 15 16 17 22 20 16 17
37 34 33 26 16 9 10 4 8 7 7 13 15 14 8 4 4 9 4 2 6 7 9 7 5 8 13 13 13 12 13 12 10 10 14 13 19 19 18 17 17 18 19 21 14
39 35 30 21 13 9 7 6 11 11 3 11 9 4 6 2 7 8 1 3 5 7 8 6 9 14 13 11 14 14 14 13 14 11 14 9 16 22 21 16 17 19 16 16 22
40 33 26 18 9 8 4 10 13 9 2 6 6 3 3 5 6 15 3 4 3 7 9 6 10 13 10 10 11 10 13 17 16 12 9 4 16 12 17 22 15 17 17 12 9
40 32 19 10 14 8 7 11 10 1 3 5 7 9 4 5 5 8 12 7 9 12 7 11 13 8 8 6 11 12 12 16 16 14 13 12 11 15 9 18 18 16 18 20 13
38 29 17 3 10 13 16 13 9 1 2 5 6 1 3 5 9 2 5 6 10 12 11 15 12 3 3 7 8 13 12 9 7 3 11 14 11 20 14 19 20 21 19 21 22
36 21 11 8 5 19 15 9 1 2 3 7 6 12 10 14 9 6 1 6 7 6 4 7 6 6 5 5 5 8 8 4 4 2 5 10 11 16 19 20 19 18 19 22 20
34 10 5 8 7 14 17 3 2 8 11 12 11 13 14 6 4 6 3 5 8 10 5 5 5 9 7 3 6 5 4 4 5 10 15 13 9 14 10 16 16 14 19 18 20
30 6 4 4 6 9 3 2 3 9 10 12 13 10 7 16 12 9 7 5 6 6 3 3 4 10 16 15 10 11 5 10 10 15 8 11 18 16 20 5 16 20 23 26 26
25 6 5 4 3 4 2 4 4 12 11 9 7 7 11 12 9 10 8 8 6 10 2 4 13 7 11 13 8 3 7 7 4 6 5 4 11 5 13 16 18 21 23 26 31
4 2 3 2 1 1 1 4 11 12 8 4 8 8 9 9 10 11 6 14 10 10 8 6 1 7 10 4 2 4 3 2 5 6 3 5 3 2 9 11 16 17 25 22 23
7 1 6 2 1 2 2 9 13 14 5 8 6 4 5 8 7 10 7 8 9 7 5 5 4 5 16 19 5 4 5 4 2 6 3 3 7 3 6 10 14 15 20 21 23
6 3 4 4 1 2 7 11 17 8 1 3 5 10 6 7 7 2 8 9 5 4 1 1 3 5 10 4 1 2 5 7 5 4 7 7 6 2 3 11 10 12 14 14 22
3 4 3 2 4 6 8 8 11 13 8 6 5 6 8 9 7 4 9 6 6 6 4 5 4 8 8 12 14 19 20 17 6 4 10 12 10 26 6 5 7 13 14 17 19
3 3 3 4 4 9 9 9 15 12 8 11 8 12 11 7 7 7 11 13 10 3 3 3 5 9 14 20 22 24 22 20 18 11 12 17 23 5 4 6 3 3 12 16 25
4 4 5 5 8 8 11 5 10 14 11 7 7 11 9 8 11 15 14 8 5 4 3 6 4 8 18 19 17 20 18 17 15 11 6 16 11 12 5 6 3 5 14 21 21
10 8 3 5 6 7 5 12 14 12 6 6 7 12 13 15 16 14 11 14 12 12 14 9 3 1 7 12 18 6 8 10 10 10 12 3 11 16 12 1 8 13 14 20 17
Wind_Direction
347 343 341 339 336 334 332 329 327 327 327 329 328 323 321 318 316 327 244 247 239 282 296 304 292 271 272 228 252 283 238 247 244 250 266 276 285 299 281 296 293 345 89 344 151
347 343 340 338 335 333 330 326 323 325 327 331 331 333 331 331 318 272 219 278 289 284 298 289 284 247 227 242 218 202 231 236 248 257 270 286 299 298 329 333 317 318 110 97 106
347 343 340 336 335 334 331 326 322 321 324 326 327 328 331 333 279 95 192 324 320 278 266 289 284 288 256 230 236 235 236 254 259 260 270 279 291 313 315 303 279 286 347 183 176
348 345 341 336 334 331 328 325 322 321 321 320 321 325 328 298 43 176 0 352 312 278 257 248 237 244 231 245 243 247 249 238 248 262 275 276 291 290 295 289 275 288 309 308 309
348 344 341 337 333 328 324 320 318 317 316 315 315 326 346 232 240 150 7 290 261 245 232 239 249 252 235 233 235 254 262 260 253 255 258 272 272 275 278 284 290 296 296 314 321
349 345 341 337 332 326 318 315 313 317 321 323 315 327 250 274 37 149 293 278 243 203 322 313 318 315 287 299 288 293 286 273 262 252 250 251 269 276 266 264 271 280 288 297 302
344 344 340 336 330 323 315 311 310 318 323 328 320 327 263 250 277 268 287 296 290 184 250 310 346 5 339 324 299 325 307 297 277 275 272 293 271 248 262 268 256 259 267 270 269
341 341 338 334 329 319 310 304 306 313 317 326 316 295 260 205 240 290 351 306 339 339 303 292 195 260 276 271 298 299 291 290 267 267 273 244 268 264 272 253 260 256 246 266 244
339 340 337 333 327 319 305 299 307 301 297 303 311 201 277 198 209 9 305 303 336 305 302 277 203 196 272 263 298 259 270 278 282 267 273 237 253 260 259 259 260 254 255 246 263
345 342 338 333 328 319 301 311 308 292 311 250 259 280 271 258 54 321 286 320 288 272 283 234 221 206 254 204 233 244 252 260 264 277 283 277 271 278 257 247 250 254 242 236 236
349 343 340 335 328 316 317 346 325 3 228 244 263 234 299 23 348 279 304 315 283 315 276 315 334 272 259 264 266 286 294 290 300 333 327 299 292 295 301 301 280 246 246 252 240
350 345 339 334 325 300 302 262 24 294 305 275 273 268 280 270 271 295 336 343 332 308 316 334 293 312 325 325 322 316 286 281 299 310 293 304 296 295 294 290 294 288 259 236 234
349 346 339 332 322 289 227 330 333 12 307 299 202 233 220 234 259 275 91 310 330 332 325 323 302 314 313 309 312 305 303 301 286 287 276 291 283 292 292 281 285 288 275 260 238
347 345 340 331 317 304 267 354 354 9 305 199 167 143 217 221 243 231 181 102 285 295 288 272 271 286 312 328 316 319 334 318 305 299 278 253 283 269 289 291 290 287 291 270 261
344 344 332 329 309 317 344 350 338 352 24 191 124 165 199 210 261 303 160 178 238 255 267 262 277 276 287 309 353 308 333 310 312 311 315 288 281 286 289 285 290 287 284 293 258
343 344 322 349 304 294 340 324 302 336 278 144 157 238 256 287 298 187 226 201 235 245 243 248 261 56 48 359 325 311 350 323 308 304 271 282 264 276 268 274 282 283 289 283 289
341 339 304 291 265 345 336 313 0 222 194 35 3 3 326 285 278 265 130 282 269 299 317 335 346 347 58 17 314 25 7 331 335 312 266 280 283 283 281 266 272 289 288 286 280
338 342 296 280 329 339 332 339 257 330 22 7 358 316 282 320 222 354 254 284 46 41 7 358 340 18 5 209 235 279 139 250 251 283 285 290 268 260 271 284 275 293 290 285 278
342 7 289 296 342 355 27 346 270 347 16 354 339 315 341 360 353 339 339 340 56 66 67 328 256 323 303 303 307 297 230 243 263 288 295 275 262 278 268 314 10 348 344 336 319
334 303 301 110 343 346 44 280 297 37 8 351 307 348 349 332 334 353 351 19 31 22 127 224 293 289 314 312 291 328 338 327 307 279 249 268 292 313 15 355 353 354 345 325 329
318 256 133 184 304 346 154 260 303 342 335 351 318 300 319 319 345 337 327 318 24 360 348 352 307 299 308 272 29 338 295 348 309 246 249 308 276 49 40 13 345 347 339 322 316
315 343 183 236 35 244 283 332 318 306 7 306 308 348 315 332 306 293 314 320 4 14 12 42 286 286 291 287 197 208 157 153 216 305 224 257 275 143 86 38 340 346 325 315 330
315 273 212 197 337 316 292 339 311 334 45 299 281 297 296 286 291 306 291 287 56 336 84 251 293 317 311 314 19 303 238 232 270 261 245 267 271 190 144 44 342 343 314 331 306
292 335 351 310 358 23 348 312 316 305 285 287 267 291 317 297 288 300 329 318 297 259 330 327 227 215 247 265 281 282 284 289 229 224 277 274 290 283 70 62 2 355 333 324 321
344 350 17 315 339 316 291 284 293 321 10 14 342 329 312 307 311 297 301 298 292 338 145 92 267 258 272 277 282 282 287 293 296 278 280 292 273 319 227 145 125 68 328 282 279
6 1 342 295 299 291 280 319 342 333 346 330 294 295 333 322 305 303 324 319 272 292 228 179 258 305 287 286 285 271 271 277 296 329 334 2 313 355 324 127 164 238 258 274 275
351 350 318 282 291 309 330 336 312 305 308 293 309 313 306 291 292 300 296 284 261 271 271 261 217 300 272 304 308 302 22 351 336 325 326 350 321 345 6 359 265 264 273 290 330
Height
817 814 811 808 804 801 798 795 793 791 788 785 782 781 777 774 771 770 768 766 764 764 763 762 762 762 762 761 760 760 780 779 769 763 748 728 730 710 702 708 700 698 702 699 694
816 813 809 806 803 800 796 794 791 789 787 785 782 780 777 774 771 766 764 762 761 760 760 758 758 758 760 757 760 765 772 768 752 744 742 732 729 720 718 716 710 703 699 699 704
814 810 807 804 800 796 794 792 790 788 785 783 780 778 775 774 770 760 761 760 759 757 757 758 758 757 760 757 756 755 762 754 745 741 735 733 730 717 724 726 713 713 709 701 700
813 809 805 801 797 794 791 789 787 785 783 781 778 776 773 772 770 758 757 756 756 757 758 757 756 762 761 765 751 760 747 747 744 741 736 735 725 723 718 719 703 699 701 703 710
812 808 804 799 796 792 789 787 785 782 780 778 777 775 772 771 763 756 756 755 755 756 755 755 754 754 761 752 750 750 745 738 733 731 729 724 725 726 716 708 703 697 700 703 703
812 807 802 798 794 790 788 785 782 779 777 775 775 774 774 772 753 752 752 751 752 754 752 751 751 748 749 749 752 743 740 734 729 728 724 727 723 720 708 705 704 700 702 701 703
810 805 800 795 791 788 785 782 779 777 776 774 773 774 773 764 753 752 751 751 750 750 751 749 747 751 751 756 743 743 746 733 729 726 725 722 726 719 707 704 704 700 696 696 701
808 803 797 793 788 785 782 779 776 774 773 773 773 775 767 753 751 751 751 749 747 748 748 747 747 751 753 749 748 753 748 755 729 724 720 731 736 712 704 703 703 699 694 688 694
806 800 795 789 785 781 778 775 773 771 771 772 773 774 764 751 751 750 750 749 748 747 745 744 744 751 752 762 769 758 766 754 739 725 726 729 725 704 700 700 700 695 695 690 683
804 799 792 786 781 778 774 772 769 768 769 771 771 775 758 750 748 749 746 747 747 744 744 742 748 757 759 767 781 765 757 745 741 729 726 730 718 703 697 695 694 692 689 687 685
802 796 789 783 779 776 772 770 772 774 770 765 758 756 747 747 748 747 745 746 744 744 755 744 758 766 754 745 741 739 741 743 733 726 733 734 724 709 704 700 696 685 683 683 681
800 793 786 781 777 775 775 775 769 770 767 755 752 747 746 747 751 744 743 749 751 759 749 755 760 743 736 735 738 740 742 741 731 727 729 730 723 708 704 702 698 692 681 675 675
798 791 784 779 775 774 772 770 768 766 772 750 741 742 744 745 747 746 742 746 752 757 755 761 752 737 738 741 743 742 744 741 739 728 723 727 727 713 696 693 688 682 677 670 665
796 788 783 777 777 774 772 770 768 767 780 753 747 743 741 741 746 737 737 745 752 758 754 753 741 739 739 743 740 751 738 734 732 738 750 725 736 722 705 694 691 682 676 671 666
793 787 781 781 777 773 771 769 768 768 786 743 743 738 737 744 739 733 735 740 751 750 750 754 744 741 744 742 740 747 738 738 735 740 740 735 741 716 709 700 691 683 676 667 658
791 786 781 779 777 772 770 768 768 785 780 747 737 740 743 737 734 730 733 731 732 740 738 737 727 735 741 739 741 737 746 742 740 746 753 735 738 718 713 702 689 678 670 662 654
787 783 780 780 776 773 770 767 784 785 738 750 747 742 746 743 736 732 737 744 750 750 748 739 737 733 738 748 742 750 760 783 775 764 753 725 728 717 694 687 682 678 669 659 652
784 780 780 778 775 775 772 778 783 752 754 746 749 747 748 731 734 733 737 746 736 746 757 764 763 749 742 747 752 748 761 777 767 758 743 723 730 706 688 679 672 672 667 658 651
783 779 778 777 777 776 780 789 782 758 753 758 755 753 745 741 745 743 743 743 744 748 768 770 760 746 741 734 740 744 755 743 752 735 745 726 708 691 676 682 684 683 680 672 656
785 781 777 777 776 776 786 784 768 758 757 760 770 757 767 759 757 754 752 741 748 748 750 759 761 743 737 734 731 738 736 754 752 752 747 719 711 706 701 698 692 689 686 677 663
785 781 778 776 776 781 794 777 764 757 757 766 768 767 765 764 761 762 757 750 746 749 750 755 760 753 745 742 744 746 742 753 750 755 747 738 727 703 709 705 697 688 681 680 666
786 783 776 776 786 780 779 770 762 758 756 759 757 760 765 763 764 762 760 755 747 752 760 762 766 761 748 729 726 731 744 749 760 752 743 746 734 706 702 696 697 686 683 674 654
794 781 774 775 788 785 774 768 764 757 758 762 765 763 759 764 770 754 755 747 747 753 758 760 769 771 747 730 732 731 727 730 737 741 736 736 720 689 692 690 690 688 686 673 657
797 791 779 777 777 783 782 776 768 755 752 752 757 756 760 760 755 755 754 746 743 745 746 753 762 767 765 745 738 735 725 716 726 738 723 713 709 694 693 689 684 689 684 677 667
802 798 798 795 790 789 783 775 768 761 757 759 764 762 763 766 761 760 752 746 741 739 745 754 764 751 744 733 725 718 714 708 709 708 714 712 697 700 689 685 686 688 683 680 669
814 814 808 805 792 788 780 771 768 763 765 765 769 762 762 767 762 757 753 753 750 742 743 751 758 749 739 725 713 709 707 703 700 701 698 706 694 682 671 678 678 681 679 667 659
819 816 813 807 795 788 782 780 774 770 762 759 761 764 764 759 751 747 745 742 742 744 743 745 748 752 741 723 715 719 716 712 711 707 707 711 705 692 682 679 683 674 670 664 647